Wetbulb
72.57 72.10 71.84 71.10 71.44 71.93 71.91 71.96 71.70 72.35 72.01 71.74 71.40 70.75 69.62 68.46 69.27 68.97 68.46 67.76 68.15 68.23 67.73 67.87 68.28 67.60 69.01 69.21 70.64 70.58 70.27 69.63 68.96
71.79 71.66 71.60 71.51 71.10 71.23 71.44 71.18 70.94 71.18 71.88 71.57 71.07 70.22 68.47 69.23 68.88 68.72 68.43 67.84 68.10 68.61 68.34 67.96 67.63 67.74 67.43 67.97 70.21 70.06 69.97 69.20 68.19
71.33 70.98 70.92 70.96 70.85 70.88 70.87 70.47 70.01 70.84 71.51 71.77 70.96 69.19 67.53 67.73 69.11 68.56 68.19 68.45 67.91 68.91 70.50 70.09 69.24 69.24 68.49 69.64 69.87 69.53 69.47 68.71 67.53
71.10 70.89 70.70 70.57 70.06 70.37 70.87 69.90 69.34 70.02 70.80 71.42 70.05 68.27 66.99 68.96 68.61 67.81 67.32 67.90 67.95 69.06 69.40 69.02 69.11 69.02 69.07 68.91 69.15 68.99 68.91 68.26 67.26
70.50 69.43 69.77 70.19 70.45 70.43 70.24 69.81 68.68 69.31 69.61 69.68 68.70 67.27 66.50 69.02 68.56 67.93 66.91 68.81 68.76 68.96 69.27 68.86 68.55 68.05 67.87 67.88 67.41 67.89 67.54 67.35 66.67
68.81 67.33 67.98 69.20 69.81 69.91 69.79 69.36 67.75 66.54 67.93 68.19 67.32 66.30 68.73 68.79 67.77 67.48 68.21 69.16 68.45 69.30 69.09 68.59 68.26 67.67 67.50 66.62 66.17 66.43 66.85 66.59 66.76
68.92 66.28 66.36 68.52 68.69 68.77 69.19 68.67 66.20 63.08 67.04 68.70 66.70 68.77 68.54 68.41 67.11 66.97 68.66 68.84 68.14 69.06 68.67 67.59 66.96 66.66 66.18 65.90 65.63 65.71 66.22 65.67 65.90
68.82 68.64 68.39 68.65 65.57 67.77 67.65 66.96 64.65 62.96 63.85 65.97 67.84 68.29 68.33 68.22 67.64 67.06 68.12 69.19 68.06 69.12 68.41 66.60 65.64 65.49 65.20 64.75 65.47 65.76 64.97 65.20 65.50
67.78 68.56 68.68 68.11 67.63 66.73 64.48 62.55 62.35 61.55 61.37 63.34 65.57 67.48 67.94 67.47 66.87 67.11 65.93 68.56 67.92 68.94 68.44 67.31 66.35 65.82 66.33 66.15 64.84 65.08 64.61 65.74 64.64
67.49 67.75 67.74 68.03 67.61 65.69 64.83 60.82 59.17 59.04 59.46 60.31 61.82 64.78 66.73 67.36 67.00 67.54 63.85 66.53 67.94 67.90 68.64 67.93 66.98 66.61 65.60 64.40 63.81 64.35 65.16 65.05 63.96
66.82 66.85 66.88 67.05 66.24 64.89 64.68 62.23 59.42 57.94 57.94 58.20 59.42 62.01 64.26 64.71 66.80 67.35 67.44 64.90 66.75 67.89 68.34 67.88 67.35 66.63 65.83 64.70 63.72 64.00 64.52 64.00 63.42
66.00 65.88 65.15 65.76 66.27 65.38 64.09 61.93 59.27 58.00 57.42 57.20 57.50 59.34 61.83 63.31 65.96 66.82 67.20 66.56 64.12 66.44 67.79 68.30 67.66 67.14 66.44 65.73 64.43 64.67 64.06 63.03 63.02
56.50 64.74 64.69 65.14 65.12 65.13 63.60 61.62 58.83 57.87 57.68 57.33 56.90 57.59 59.18 60.77 64.97 65.76 66.18 66.62 65.93 64.98 66.37 67.60 67.68 67.35 66.63 66.15 65.00 63.85 63.51 64.25 63.12
49.19 54.26 64.15 64.61 63.82 62.90 62.20 61.03 60.01 57.41 57.25 57.32 57.74 58.32 59.08 59.91 60.53 64.04 64.87 65.66 65.74 65.50 64.03 64.51 65.30 66.27 66.91 66.21 65.42 63.83 62.81 63.21 63.27
45.46 49.86 50.39 58.87 62.33 61.71 61.75 60.84 60.22 58.25 57.63 56.63 56.48 58.01 59.75 60.83 60.56 61.76 63.80 64.74 64.84 64.84 64.91 65.74 65.83 63.92 65.78 66.47 65.42 64.30 63.35 62.46 62.01
42.24 43.79 45.97 49.94 55.56 61.41 61.85 60.17 59.23 56.52 56.40 54.98 55.88 56.86 59.07 60.42 60.79 61.35 62.43 63.54 63.49 63.56 64.31 65.00 66.29 65.45 64.17 65.46 65.75 64.37 63.60 62.72 61.92
38.95 41.87 45.43 48.31 49.86 52.65 60.56 59.84 59.08 58.46 55.85 54.75 55.68 53.79 56.39 59.51 60.61 61.14 61.22 61.80 63.40 62.74 63.37 64.02 65.28 65.42 64.50 64.12 64.20 64.44 63.73 63.11 62.46
38.33 40.30 42.38 44.71 47.46 49.25 55.13 59.48 58.77 56.60 56.12 56.78 56.08 52.77 52.00 55.92 59.06 60.07 61.39 61.56 62.28 62.79 62.89 63.14 64.29 64.82 65.25 63.64 62.65 61.88 63.24 63.26 63.21
35.62 38.04 40.67 44.19 46.20 47.93 49.42 58.04 59.66 58.47 55.99 55.65 57.57 56.94 56.40 53.61 52.58 57.43 59.99 61.51 61.23 61.85 62.04 62.60 63.63 64.38 64.61 61.06 60.12 59.38 61.24 63.70 63.29
34.00 35.62 36.31 37.65 39.21 41.12 42.55 45.45 57.31 58.62 57.65 57.10 55.77 55.49 54.42 54.88 54.34 52.97 55.66 59.48 60.71 61.82 61.43 62.50 62.87 63.64 64.21 63.17 60.67 58.97 61.15 63.57 63.47
MSLP
1020.15 1020.27 1020.48 1020.61 1020.72 1020.78 1020.88 1021.02 1021.10 1021.18 1021.38 1021.49 1021.71 1021.97 1022.13 1022.22 1022.18 1022.28 1022.54 1022.51 1022.71 1022.80 1022.84 1022.88 1022.86 1022.81 1022.81 1023.01 1022.99 1023.05 1023.11 1023.21 1023.40
1020.36 1020.53 1020.64 1020.90 1021.08 1021.01 1021.16 1021.35 1021.45 1021.45 1021.54 1021.70 1021.88 1022.08 1022.28 1022.19 1022.35 1022.43 1022.60 1022.68 1022.86 1022.89 1022.92 1022.97 1023.06 1023.16 1023.26 1023.31 1023.37 1023.50 1023.47 1023.63 1023.80
1020.35 1020.69 1020.87 1020.95 1021.10 1021.25 1021.37 1021.59 1021.69 1021.68 1021.64 1021.75 1021.96 1022.11 1022.27 1022.39 1022.49 1022.61 1022.70 1022.95 1023.05 1023.08 1023.03 1023.13 1023.29 1023.44 1023.48 1023.63 1023.65 1023.90 1023.96 1024.11 1024.35
1020.33 1020.68 1020.88 1021.06 1021.20 1021.36 1021.54 1021.61 1021.76 1021.74 1021.70 1021.79 1022.09 1022.28 1022.40 1022.37 1022.52 1022.74 1022.82 1023.13 1023.17 1023.25 1023.29 1023.37 1023.52 1023.75 1023.86 1023.96 1024.04 1024.22 1024.37 1024.61 1024.80
1020.39 1020.65 1020.83 1021.04 1021.22 1021.33 1021.57 1021.75 1021.71 1021.78 1021.73 1021.97 1022.29 1022.58 1022.77 1022.60 1022.69 1022.83 1022.93 1023.17 1023.24 1023.38 1023.49 1023.62 1023.85 1024.01 1024.23 1024.34 1024.53 1024.51 1024.84 1024.92 1025.14
1020.30 1020.48 1020.66 1020.83 1021.08 1021.23 1021.28 1021.59 1021.90 1021.95 1022.01 1022.22 1022.44 1022.75 1022.72 1022.81 1022.89 1022.76 1023.06 1023.19 1023.32 1023.51 1023.66 1023.79 1024.07 1024.31 1024.47 1024.78 1024.84 1025.02 1025.24 1025.23 1025.54
1020.09 1020.35 1020.62 1020.78 1021.01 1021.20 1021.33 1021.25 1021.62 1021.99 1022.07 1022.24 1022.65 1022.59 1022.72 1022.79 1023.00 1023.00 1023.12 1023.18 1023.33 1023.57 1023.81 1023.98 1024.22 1024.50 1024.66 1024.86 1025.24 1025.37 1025.57 1025.56 1025.90
1020.03 1020.18 1020.48 1020.68 1020.87 1021.04 1021.26 1021.50 1021.44 1021.67 1021.91 1022.17 1022.24 1022.42 1022.63 1022.70 1022.87 1023.07 1023.17 1023.23 1023.35 1023.61 1023.95 1024.16 1024.43 1024.59 1024.79 1024.97 1025.32 1025.53 1025.73 1025.82 1026.11
1019.78 1019.88 1020.15 1020.35 1020.67 1020.84 1021.20 1021.44 1021.51 1021.65 1021.81 1021.99 1022.12 1022.21 1022.37 1022.60 1022.91 1022.97 1022.98 1023.11 1023.33 1023.61 1024.02 1024.17 1024.48 1024.61 1024.84 1025.15 1025.37 1025.60 1025.78 1026.01 1026.26
1019.69 1019.62 1019.86 1019.95 1020.28 1020.43 1020.91 1021.46 1021.66 1021.68 1021.74 1021.91 1022.05 1022.08 1022.13 1022.26 1022.64 1022.81 1023.01 1023.08 1023.25 1023.50 1023.89 1024.17 1024.41 1024.50 1024.75 1025.09 1025.45 1025.70 1025.91 1026.08 1026.36
1019.16 1019.24 1019.50 1019.61 1019.76 1020.23 1020.43 1020.79 1021.35 1021.70 1021.80 1021.78 1021.91 1021.91 1022.00 1022.29 1022.31 1022.61 1022.87 1023.12 1023.22 1023.41 1023.66 1023.94 1024.30 1024.42 1024.54 1025.00 1025.37 1025.62 1025.94 1026.13 1026.40
1018.21 1018.63 1018.95 1019.14 1019.37 1019.76 1020.16 1020.70 1021.14 1021.58 1021.87 1021.81 1021.92 1021.96 1021.87 1022.09 1022.04 1022.23 1022.58 1022.83 1023.13 1023.27 1023.44 1023.60 1024.07 1024.21 1024.43 1024.50 1025.07 1025.39 1025.83 1026.13 1026.42
1018.77 1017.74 1018.65 1018.83 1018.90 1019.35 1019.64 1020.21 1020.89 1021.25 1021.52 1021.66 1021.77 1021.87 1022.00 1021.94 1021.81 1021.95 1022.23 1022.47 1022.72 1023.06 1023.18 1023.32 1023.72 1024.02 1024.28 1024.60 1024.88 1025.37 1025.70 1026.06 1026.38
1021.16 1019.60 1018.48 1018.52 1018.71 1018.83 1019.21 1019.72 1020.17 1020.86 1021.28 1021.33 1021.47 1021.66 1021.71 1021.78 1021.81 1021.86 1021.93 1022.07 1022.32 1022.56 1022.77 1023.14 1023.42 1023.80 1024.03 1024.41 1024.83 1025.29 1025.66 1026.02 1026.30
1021.73 1021.06 1020.27 1018.90 1017.27 1018.41 1018.60 1019.05 1019.74 1020.11 1020.59 1021.06 1021.18 1021.32 1021.45 1021.53 1021.57 1021.53 1021.78 1021.85 1022.00 1022.16 1022.41 1022.77 1023.14 1023.58 1023.87 1024.13 1024.57 1025.07 1025.56 1025.95 1026.36
1022.63 1021.62 1020.66 1020.07 1019.27 1017.70 1018.17 1018.27 1019.00 1019.75 1020.16 1020.96 1021.16 1021.17 1021.14 1021.25 1021.29 1021.24 1021.37 1021.50 1021.68 1021.92 1022.01 1022.34 1022.64 1023.20 1023.65 1023.89 1024.24 1024.72 1025.24 1025.71 1026.18
1023.06 1022.34 1021.62 1021.02 1020.47 1019.18 1017.78 1017.95 1018.38 1018.79 1019.45 1019.68 1020.19 1020.51 1020.84 1020.67 1020.58 1020.80 1020.90 1021.04 1021.25 1021.48 1021.65 1021.93 1022.31 1022.52 1023.21 1023.56 1023.95 1024.41 1024.84 1025.29 1025.73
1023.62 1022.75 1022.01 1021.27 1021.12 1019.71 1018.93 1017.56 1017.59 1017.88 1018.49 1018.37 1018.41 1019.12 1019.03 1019.64 1019.99 1020.12 1020.22 1020.43 1020.73 1020.95 1021.27 1021.51 1021.87 1022.10 1022.48 1023.08 1023.55 1024.07 1024.49 1024.84 1025.17
1024.16 1023.34 1022.44 1021.44 1020.63 1020.07 1019.32 1018.07 1016.68 1016.84 1017.19 1017.99 1017.53 1017.76 1017.89 1018.48 1019.24 1019.63 1019.59 1019.86 1020.06 1020.37 1020.79 1021.10 1021.38 1021.80 1022.27 1022.70 1022.86 1023.47 1023.97 1024.43 1024.67
1024.25 1023.69 1023.12 1022.32 1021.58 1020.74 1020.03 1018.75 1016.98 1016.20 1016.35 1016.12 1016.74 1017.34 1017.63 1017.62 1017.95 1018.41 1019.05 1019.46 1019.63 1019.81 1020.07 1020.39 1020.74 1021.17 1021.66 1022.21 1022.46 1022.89 1023.30 1023.83 1024.22
Wind_Speed
11 12 9 10 9 11 11 14 14 13 14 14 16 15 14 10 11 10 10 8 11 12 13 12 12 12 13 13 15 16 19 20 20
11 11 11 10 11 11 12 10 10 10 12 14 15 14 10 10 8 9 9 8 10 11 12 14 12 11 11 11 16 16 18 20 20
13 11 10 10 11 10 11 9 6 7 11 13 14 12 11 8 8 9 8 10 10 10 14 15 14 12 13 14 18 17 17 19 18
13 13 12 11 11 11 10 9 6 5 9 12 12 11 10 9 7 8 5 9 11 12 13 15 16 14 16 16 16 17 17 18 18
12 12 13 13 11 11 9 8 8 6 6 11 10 9 8 8 8 7 6 10 13 11 14 15 14 13 14 15 13 15 15 15 14
10 10 12 13 13 12 12 10 6 6 7 10 11 9 5 7 5 5 10 11 12 11 13 16 15 14 14 13 13 12 11 15 15
9 9 9 11 10 11 11 13 11 6 4 5 8 5 7 6 6 4 10 12 12 11 14 16 15 14 14 13 11 11 13 14 14
6 6 6 6 9 6 8 8 6 7 5 5 6 7 7 5 5 5 10 11 11 12 14 17 14 14 14 13 12 13 11 13 14
6 5 7 8 6 7 5 3 6 7 7 6 7 8 8 5 4 5 12 11 12 13 13 16 16 16 16 16 12 12 12 14 14
6 7 8 7 7 8 7 4 5 6 7 7 7 7 8 10 5 4 7 8 12 13 14 16 17 18 17 15 13 11 14 13 14
7 7 8 8 8 6 9 8 7 6 6 7 7 8 6 6 9 6 7 7 11 12 15 16 17 18 20 17 16 14 14 14 13
7 7 7 8 8 10 8 7 6 6 5 7 7 6 8 7 9 9 7 8 11 12 15 16 19 19 19 21 18 16 14 13 14
15 4 7 8 8 9 9 8 7 6 7 6 6 7 6 9 9 8 7 8 8 9 13 13 18 20 18 18 19 17 15 13 16
12 11 5 7 7 8 8 7 8 7 7 7 7 6 7 8 7 9 10 11 10 8 11 8 14 17 17 17 18 18 17 15 15
12 9 10 13 8 8 9 10 9 6 9 7 6 6 6 6 7 9 8 10 11 11 11 8 8 13 15 17 18 18 18 16 15
13 10 12 11 14 7 11 8 11 7 6 4 3 4 7 8 8 7 8 9 9 9 10 7 6 8 13 16 17 18 18 18 17
13 11 9 10 11 14 9 11 8 8 8 6 4 6 5 8 8 8 8 11 7 9 10 11 10 10 8 12 14 16 19 19 18
14 14 12 11 9 8 14 11 15 10 9 11 6 5 8 5 4 10 8 11 8 8 9 11 12 11 11 11 13 14 16 19 20
14 13 13 12 9 10 10 13 11 11 11 8 10 4 4 6 5 5 9 9 9 10 8 10 12 12 8 10 12 16 16 18 21
13 13 14 13 10 11 12 16 13 12 10 11 10 9 3 2 4 6 8 7 8 10 8 11 10 12 12 10 11 17 20 21 22
Wind_Direction
126 122 117 120 130 132 122 130 124 123 126 125 124 124 120 123 115 113 104 102 109 117 116 118 111 118 113 94 99 104 104 101 99
138 128 124 127 137 135 134 134 137 136 139 136 135 132 127 130 124 118 114 108 121 122 127 124 123 124 117 118 110 103 105 105 101
149 146 141 142 149 145 145 141 142 160 161 148 144 140 140 140 131 126 119 112 133 127 120 116 121 122 127 113 110 106 103 102 103
160 157 157 157 161 160 154 144 134 153 161 165 148 148 145 146 140 138 128 124 141 137 127 115 105 105 100 102 101 107 107 108 109
176 164 166 167 164 158 157 153 139 127 148 136 136 137 135 150 152 140 135 147 146 145 143 124 119 111 98 89 102 97 103 107 105
187 178 178 173 169 167 160 152 134 123 133 136 135 147 170 167 168 153 154 152 151 138 150 132 125 119 121 110 94 102 104 110 110
196 187 188 176 172 174 175 156 142 136 146 153 145 180 177 182 174 172 165 160 157 143 156 139 136 133 123 119 126 118 115 111 117
198 196 194 187 177 180 185 172 167 164 161 166 178 181 184 187 184 179 174 165 162 156 159 144 141 144 136 141 138 128 131 118 128
203 193 195 191 184 177 169 174 181 174 170 174 188 195 185 187 182 203 185 163 167 164 165 152 156 147 146 142 140 141 148 131 135
207 204 197 190 187 185 185 168 188 189 185 181 194 210 204 184 189 207 200 184 170 178 173 172 168 157 151 149 155 151 143 140 140
213 205 201 202 188 193 192 183 186 197 196 196 196 210 215 203 186 195 199 202 181 189 185 189 180 169 159 159 166 179 159 151 141
210 209 202 204 198 197 190 187 181 184 195 207 207 206 217 223 201 189 196 197 195 192 206 198 193 178 175 165 171 164 160 170 161
329 203 219 212 191 198 192 187 189 197 196 195 204 208 214 226 222 203 194 192 199 201 220 210 199 190 182 174 171 172 177 166 168
353 352 267 210 205 193 191 190 192 192 205 204 198 210 214 217 229 222 207 201 199 203 209 213 203 196 186 179 176 175 180 179 167
350 344 348 317 191 197 193 189 195 192 199 205 205 209 221 222 217 223 217 213 208 206 210 204 202 195 189 182 181 180 182 183 190
340 342 343 337 326 201 209 197 195 195 173 139 217 242 230 224 223 219 216 216 207 203 207 202 205 191 197 189 185 185 185 187 191
333 333 326 322 320 332 211 201 202 205 179 177 183 203 209 230 220 216 213 213 201 200 203 206 199 194 189 194 184 187 191 190 192
335 332 329 326 308 309 311 206 207 201 194 198 173 187 216 189 193 218 205 206 201 199 205 207 203 202 189 184 187 182 191 196 196
332 326 325 325 327 319 308 294 206 207 202 204 217 227 153 197 187 218 215 207 205 209 210 210 207 197 196 198 188 181 187 200 203
327 325 326 319 320 313 309 309 291 208 218 204 190 203 185 200 174 198 199 213 209 212 206 212 205 203 196 196 195 188 187 196 208